LFRCLFRB

Guest
Details From LFRC - Cherbourg Maupertus
To LFRB - Brest Bretagne
Flight Number -
Tags generated
Created
Modified
Stats Distance 137 nm / 253 km
Max Altitude 9,000 ft / 2,743 m
Waypoints 3
Social Downloads 1
Likes 0
Share VATSIM

Download

Looking for another format? Having issues loading an existing format? Contact us
Advertisement - Login to hide

Notes

Basic altitude profile: - Ascent Rate: 2500ft/min - Ascent Speed: 250kts - Cruise Altitude: 8000ft - Cruise Speed: 250kts - Descent Rate: 1500ft/min - Descent Speed: 250kts Options: - Use NATs: yes - Use PACOTS: yes - Use low airways: yes - Use high airways: yes

Route

LFRC SOMEN LFRB

ID Type Via Altitude Latitude Longitude Leg Dist Tot Dist Heading (true) Name
O LFRC APT - 0 ft / 0 m 49.65015˚ -1.47026˚ - 0 nm - Cherbourg Maupertus
SOMEN FIX - 9,000 ft / 2,743 m 48.85000˚ -3.55000˚ 94 nm 94 nm 240° / 239° -
O LFRB APT - 0 ft / 0 m 48.44938˚ -4.41823˚ 42 nm 136 nm 235° / 235° Brest Bretagne

Altitude Profile

Advertisement - Login to hide

LFRC

Details ICAO LFRC (CER)
Name Cherbourg Maupertus
Region France
Timezone Europe/Paris (UTC+1.0)
Stats Elevation 459 ft / 140 m (AMSL)
Location 49.650151° -1.470264°
Runways 1
Magnetic Variation 0.706° W

METAR

LFRC 142030Z AUTO 25015KT 230V290 9999 -RA SCT019 BKN027 BKN060 06/03 Q0991

Decode

TAF

Not found

Departure Runways

ID Width Length Bearing (true) Bearing (mag) Surface Threshold Offset Overrun Length
10 148 ft / 45 m 7,985 ft / 2,434 m 100.78° 101.49° Asphalt 0 ft / 0 m 0 ft / 0 m
28 148 ft / 45 m 7,985 ft / 2,434 m 280.80° 281.51° Asphalt 0 ft / 0 m 0 ft / 0 m

LFRB

Details ICAO LFRB (BES)
Name Brest Bretagne
Region France
Timezone Europe/Paris (UTC+1.0)
Stats Elevation 325 ft / 99 m (AMSL)
Location 48.449376° -4.418232°
Runways 2
Magnetic Variation 1.576° W

METAR

LFRB 142030Z AUTO 28015KT 9999 SCT023/// BKN032/// BKN041/// ///CB 07/05 Q0998 TEMPO 29028G50KT 4000 SHRA BKN012CB

Decode

TAF

TAF LFRB 141700Z 1418/1524 30015G25KT 9999 SCT020TCU BKN025 TEMPO 1418/1512 31025G40KT 4000 SHRA BKN012CB PROB40 TEMPO 1418/1509 TSRAGS PROB30 TEMPO 1418/1509 29028G50KT TSGR BECMG 1512/1515 32015KT

Decode

Destination Runways

ID Width Length Bearing (true) Bearing (mag) Surface Threshold Offset Overrun Length
07L 62 ft / 19 m 2,518 ft / 768 m 71.21° 72.79° Asphalt 131 ft / 40 m 0 ft / 0 m
07R 148 ft / 45 m 10,153 ft / 3,095 m 71.16° 72.74° Asphalt 0 ft / 0 m 0 ft / 0 m
25L 148 ft / 45 m 10,153 ft / 3,095 m 251.19° 252.77° Asphalt 984 ft / 300 m 0 ft / 0 m
25R 62 ft / 19 m 2,518 ft / 768 m 251.22° 252.80° Asphalt 112 ft / 34 m 0 ft / 0 m

Approach Navaids

Runway Type Ident Frequency Range Bearing (true) Bearing (mag) Slope Elevation
25L Localiser BG 109.90 MHz 27 nm / 50 km 251.20° 252.78° - 325 ft / 99 m (AMSL)
25L Glidescope BG 109.90 MHz 27 nm / 50 km 251.20° 252.78° 3.00° 325 ft / 99 m (AMSL)
25L DME BG 109.90 MHz 27 nm / 50 km - - - 325 ft / 99 m (AMSL)

Popular Alternatives